Time,TemperatureF,DewpointF,PressureIn,WindDirection,WindDirectionDegrees,WindSpeedMPH,WindSpeedGustMPH,Humidity,HourlyPrecipIn,Conditions,Clouds,dailyrainin,SoftwareType,DateUTC
2013-01-08 00:00:00,27.3,16.4,30.21,SW,225,8.5,12.3,63,0.00,,CLR,0.00,VWS V14.01,2013-01-08 05:00:00,
2013-01-08 00:02:00,27.3,16.4,30.21,SW,225,8.7,12.3,63,0.00,,CLR,0.00,VWS V14.01,2013-01-08 05:02:00,
2013-01-08 00:04:00,27.3,16.8,30.21,SW,225,7.4,12.3,64,0.00,,CLR,0.00,VWS V14.01,2013-01-08 05:04:00,
2013-01-08 00:08:00,27.5,16.6,30.21,SW,225,9.2,10.3,63,0.00,,CLR,0.00,VWS V14.01,2013-01-08 05:08:00,
2013-01-08 00:13:00,27.5,16.6,30.21,SW,225,10.1,12.8,63,0.00,,CLR,0.00,VWS V14.01,2013-01-08 05:13:00,
2013-01-08 00:18:00,27.5,16.6,30.18,SW,225,8.7,12.8,63,0.00,,CLR,0.00,VWS V14.01,2013-01-08 05:18:00,
2013-01-08 00:23:00,27.5,16.6,30.18,SW,225,8.5,12.8,63,0.00,,CLR,0.00,VWS V14.01,2013-01-08 05:23:00,
2013-01-08 00:28:00,27.5,16.6,30.18,SW,225,7.4,12.8,63,0.00,,CLR,0.00,VWS V14.01,2013-01-08 05:28:00,
2013-01-08 00:33:00,27.5,16.6,30.21,SW,225,10.7,12.8,63,0.00,,CLR,0.00,VWS V14.01,2013-01-08 05:33:00,
2013-01-08 00:38:00,27.5,16.6,30.21,SW,225,10.3,12.8,63,0.00,,CLR,0.00,VWS V14.01,2013-01-08 05:38:00,
2013-01-08 00:43:00,27.7,16.7,30.21,SW,225,9.8,12.8,63,0.00,,CLR,0.00,VWS V14.01,2013-01-08 05:43:00,
2013-01-08 00:48:00,27.9,16.9,30.21,SW,225,9.8,12.8,63,0.00,,CLR,0.00,VWS V14.01,2013-01-08 05:48:00,
2013-01-08 00:53:00,27.9,16.9,30.21,SW,225,8.7,12.8,63,0.00,,CLR,0.00,VWS V14.01,2013-01-08 05:53:00,
2013-01-08 00:58:00,27.9,16.9,30.21,SW,225,6.0,12.8,63,0.00,,CLR,0.00,VWS V14.01,2013-01-08 05:58:00,
2013-01-08 01:03:00,28.0,17.1,30.18,SW,225,9.4,12.8,63,0.00,,CLR,0.00,VWS V14.01,2013-01-08 06:03:00,
2013-01-08 01:08:00,28.0,17.1,30.18,SW,225,8.7,10.5,63,0.00,,CLR,0.00,VWS V14.01,2013-01-08 06:08:00,
2013-01-08 01:13:00,28.0,17.1,30.18,SSW,202,7.8,10.5,63,0.00,,CLR,0.00,VWS V14.01,2013-01-08 06:13:00,
2013-01-08 01:18:00,28.2,17.3,30.21,SSW,202,9.8,10.5,63,0.00,,CLR,0.00,VWS V14.01,2013-01-08 06:18:00,
2013-01-08 01:23:00,28.2,17.3,30.21,SW,225,9.4,10.7,63,0.00,,CLR,0.00,VWS V14.01,2013-01-08 06:23:00,
2013-01-08 01:28:00,28.4,17.4,30.21,SW,225,8.5,10.7,63,0.00,,CLR,0.00,VWS V14.01,2013-01-08 06:28:00,
2013-01-08 01:33:00,28.6,17.2,30.21,SW,225,11.0,11.0,62,0.00,,CLR,0.00,VWS V14.01,2013-01-08 06:33:00,
2013-01-08 01:38:00,28.6,17.2,30.21,SW,225,8.7,12.3,62,0.00,,CLR,0.00,VWS V14.01,2013-01-08 06:38:00,
2013-01-08 01:43:00,28.6,16.9,30.21,SW,225,9.6,12.3,61,0.00,,CLR,0.00,VWS V14.01,2013-01-08 06:43:00,
2013-01-08 01:48:00,28.8,17.0,30.21,SW,225,7.6,12.3,61,0.00,,CLR,0.00,VWS V14.01,2013-01-08 06:48:00,
2013-01-08 01:53:00,28.9,17.2,30.21,SW,225,9.8,12.8,61,0.00,,CLR,0.00,VWS V14.01,2013-01-08 06:53:00,
2013-01-08 01:58:00,28.8,17.0,30.21,SW,225,10.5,12.8,61,0.00,,CLR,0.00,VWS V14.01,2013-01-08 06:58:00,
2013-01-08 02:00:00,28.6,17.2,30.24,SW,225,5.4,13.0,62,0.00,,CLR,0.00,VWS V14.01,2013-01-08 07:00:00,
2013-01-08 02:03:00,28.8,17.0,30.21,SW,225,10.7,13.0,61,0.00,,CLR,0.00,VWS V14.01,2013-01-08 07:03:00,
2013-01-08 02:08:00,28.8,17.0,30.21,SW,225,11.0,13.0,61,0.00,,CLR,0.00,VWS V14.01,2013-01-08 07:08:00,
2013-01-08 02:13:00,28.8,17.0,30.21,SW,225,8.5,13.0,61,0.00,,CLR,0.00,VWS V14.01,2013-01-08 07:13:00,
2013-01-08 02:18:00,28.8,17.0,30.21,SW,225,8.1,13.0,61,0.00,,CLR,0.00,VWS V14.01,2013-01-08 07:18:00,
2013-01-08 02:23:00,28.8,17.0,30.21,SW,225,6.5,13.0,61,0.00,,CLR,0.00,VWS V14.01,2013-01-08 07:23:00,
2013-01-08 02:28:00,28.8,17.0,30.21,SSW,202,8.1,13.0,61,0.00,,CLR,0.00,VWS V14.01,2013-01-08 07:28:00,
2013-01-08 02:34:00,28.8,17.0,30.21,SSW,202,7.4,13.0,61,0.00,,CLR,0.00,VWS V14.01,2013-01-08 07:34:00,
2013-01-08 02:39:00,28.6,16.9,30.21,SW,225,9.8,13.0,61,0.00,,CLR,0.00,VWS V14.01,2013-01-08 07:39:00,
2013-01-08 02:44:00,28.6,17.2,30.21,SW,225,8.5,13.0,62,0.00,,CLR,0.00,VWS V14.01,2013-01-08 07:44:00,
2013-01-08 02:49:00,28.6,17.2,30.21,SSW,202,9.8,13.0,62,0.00,,CLR,0.00,VWS V14.01,2013-01-08 07:49:00,
2013-01-08 02:54:00,28.6,17.2,30.21,WSW,248,7.8,13.0,62,0.00,,CLR,0.00,VWS V14.01,2013-01-08 07:54:00,
2013-01-08 02:59:00,28.6,17.2,30.21,SSW,202,7.4,13.0,62,0.00,,CLR,0.00,VWS V14.01,2013-01-08 07:59:00,
2013-01-08 03:00:00,27.9,17.3,30.24,SW,225,7.4,10.3,64,0.00,,CLR,0.00,VWS V14.01,2013-01-08 08:00:00,
2013-01-08 03:04:00,28.6,17.2,30.24,SSW,202,6.3,13.0,62,0.00,,CLR,0.00,VWS V14.01,2013-01-08 08:04:00,
2013-01-08 03:09:00,28.6,16.9,30.24,SW,225,7.6,8.1,61,0.00,,CLR,0.00,VWS V14.01,2013-01-08 08:09:00,
2013-01-08 03:14:00,28.6,16.9,30.24,WSW,248,7.6,8.1,61,0.00,,CLR,0.00,VWS V14.01,2013-01-08 08:14:00,
2013-01-08 03:19:00,28.6,16.9,30.24,WSW,248,7.4,9.8,61,0.00,,CLR,0.00,VWS V14.01,2013-01-08 08:19:00,
2013-01-08 03:24:00,28.4,17.1,30.24,SW,225,10.1,10.1,62,0.00,,CLR,0.00,VWS V14.01,2013-01-08 08:24:00,
2013-01-08 03:29:00,28.6,16.9,30.24,SW,225,7.6,10.1,61,0.00,,CLR,0.00,VWS V14.01,2013-01-08 08:29:00,
2013-01-08 03:34:00,28.4,17.1,30.24,SW,225,6.3,10.3,62,0.00,,CLR,0.00,VWS V14.01,2013-01-08 08:34:00,
2013-01-08 03:39:00,28.2,16.9,30.24,SW,225,7.4,10.3,62,0.00,,CLR,0.00,VWS V14.01,2013-01-08 08:39:00,
2013-01-08 03:44:00,28.2,16.9,30.24,SW,225,7.4,10.3,62,0.00,,CLR,0.00,VWS V14.01,2013-01-08 08:44:00,
2013-01-08 03:49:00,28.0,17.1,30.24,SW,225,7.6,10.3,63,0.00,,CLR,0.00,VWS V14.01,2013-01-08 08:49:00,
2013-01-08 03:54:00,28.0,17.1,30.24,SW,225,7.4,10.3,63,0.00,,CLR,0.00,VWS V14.01,2013-01-08 08:54:00,
2013-01-08 03:59:00,27.9,16.9,30.24,SW,225,6.7,10.3,63,0.00,,CLR,0.00,VWS V14.01,2013-01-08 08:59:00,
2013-01-08 04:00:00,27.1,17.3,30.24,SW,225,6.3,9.0,66,0.00,,CLR,0.00,VWS V14.01,2013-01-08 09:00:00,
2013-01-08 04:04:00,27.9,17.3,30.24,SW,225,6.7,10.3,64,0.00,,CLR,0.00,VWS V14.01,2013-01-08 09:04:00,
2013-01-08 04:09:00,27.9,17.3,30.24,SW,225,7.8,9.0,64,0.00,,CLR,0.00,VWS V14.01,2013-01-08 09:09:00,
2013-01-08 04:14:00,27.7,17.1,30.24,WSW,248,7.4,9.0,64,0.00,,CLR,0.00,VWS V14.01,2013-01-08 09:14:00,
2013-01-08 04:19:00,27.7,17.1,30.24,SW,225,6.5,9.0,64,0.00,,CLR,0.00,VWS V14.01,2013-01-08 09:19:00,
2013-01-08 04:24:00,27.5,16.9,30.24,SSW,202,6.0,9.0,64,0.00,,CLR,0.00,VWS V14.01,2013-01-08 09:24:00,
2013-01-08 04:29:00,27.5,17.3,30.24,SSW,202,6.0,9.0,65,0.00,,CLR,0.00,VWS V14.01,2013-01-08 09:29:00,
2013-01-08 04:34:00,27.5,17.3,30.24,SW,225,6.5,9.0,65,0.00,,CLR,0.00,VWS V14.01,2013-01-08 09:34:00,
2013-01-08 04:39:00,27.3,17.1,30.24,SW,225,6.3,9.0,65,0.00,,CLR,0.00,VWS V14.01,2013-01-08 09:39:00,
2013-01-08 04:44:00,27.3,17.1,30.24,SW,225,6.0,9.0,65,0.00,,CLR,0.00,VWS V14.01,2013-01-08 09:44:00,
2013-01-08 04:49:00,27.1,17.3,30.24,SW,225,5.6,9.0,66,0.00,,CLR,0.00,VWS V14.01,2013-01-08 09:49:00,
2013-01-08 04:54:00,27.3,17.5,30.24,SW,225,6.3,9.0,66,0.00,,CLR,0.00,VWS V14.01,2013-01-08 09:54:00,
2013-01-08 04:59:00,27.1,17.3,30.24,SW,225,7.8,9.0,66,0.00,,CLR,0.00,VWS V14.01,2013-01-08 09:59:00,
2013-01-08 05:00:00,26.2,17.5,30.24,SSW,202,5.4,9.2,69,0.00,,CLR,0.00,VWS V14.01,2013-01-08 10:00:00,
2013-01-08 05:04:00,27.3,17.5,30.24,SSW,202,7.4,9.0,66,0.00,,CLR,0.00,VWS V14.01,2013-01-08 10:04:00,
2013-01-08 05:09:00,27.1,17.3,30.24,SW,225,7.8,8.1,66,0.00,,CLR,0.00,VWS V14.01,2013-01-08 10:09:00,
2013-01-08 05:14:00,27.3,17.5,30.24,SSW,202,7.4,9.2,66,0.00,,CLR,0.00,VWS V14.01,2013-01-08 10:14:00,
2013-01-08 05:19:00,27.1,17.3,30.24,SW,225,6.5,9.2,66,0.00,,CLR,0.00,VWS V14.01,2013-01-08 10:19:00,
2013-01-08 05:24:00,27.0,17.1,30.24,SW,225,6.0,9.2,66,0.00,,CLR,0.00,VWS V14.01,2013-01-08 10:24:00,
2013-01-08 05:29:00,27.1,17.6,30.24,SSW,202,6.3,9.2,67,0.00,,CLR,0.00,VWS V14.01,2013-01-08 10:29:00,
2013-01-08 05:34:00,27.1,17.6,30.24,SW,225,7.6,9.2,67,0.00,,CLR,0.00,VWS V14.01,2013-01-08 10:34:00,
2013-01-08 05:39:00,27.0,17.5,30.24,SSW,202,6.3,9.2,67,0.00,,CLR,0.00,VWS V14.01,2013-01-08 10:39:00,
2013-01-08 05:44:00,27.0,17.5,30.24,SSW,202,6.5,9.2,67,0.00,,CLR,0.00,VWS V14.01,2013-01-08 10:44:00,
2013-01-08 05:49:00,26.8,17.3,30.24,SSW,202,5.6,9.2,67,0.00,,CLR,0.00,VWS V14.01,2013-01-08 10:49:00,
2013-01-08 05:56:00,26.6,17.5,30.24,SSW,202,6.3,9.2,68,0.00,,CLR,0.00,VWS V14.01,2013-01-08 10:56:00,
2013-01-08 06:00:00,25.5,17.4,30.24,SW,225,4.9,8.7,71,0.00,,CLR,0.00,VWS V14.01,2013-01-08 11:00:00,
2013-01-08 06:01:00,26.4,17.3,30.24,SSW,202,6.0,9.2,68,0.00,,CLR,0.00,VWS V14.01,2013-01-08 11:01:00,
2013-01-08 06:06:00,26.2,17.5,30.24,SW,225,6.3,9.2,69,0.00,,CLR,0.00,VWS V14.01,2013-01-08 11:06:00,
2013-01-08 06:11:00,26.2,17.5,30.24,SW,225,5.8,7.4,69,0.00,,CLR,0.00,VWS V14.01,2013-01-08 11:11:00,
2013-01-08 06:16:00,26.2,17.8,30.24,SSW,202,5.8,7.6,70,0.00,,CLR,0.00,VWS V14.01,2013-01-08 11:16:00,
2013-01-08 06:21:00,26.4,17.6,30.24,SW,225,6.5,7.6,69,0.00,,CLR,0.00,VWS V14.01,2013-01-08 11:21:00,
2013-01-08 06:26:00,26.2,17.5,30.24,SW,225,5.4,7.6,69,0.00,,CLR,0.00,VWS V14.01,2013-01-08 11:26:00,
2013-01-08 06:31:00,26.1,17.3,30.24,SSW,202,5.6,7.6,69,0.00,,CLR,0.00,VWS V14.01,2013-01-08 11:31:00,
2013-01-08 06:36:00,26.1,17.3,30.24,SSW,202,6.5,7.6,69,0.00,,CLR,0.00,VWS V14.01,2013-01-08 11:36:00,
2013-01-08 06:41:00,26.2,17.8,30.24,SSW,202,6.0,7.6,70,0.00,,CLR,0.00,VWS V14.01,2013-01-08 11:41:00,
2013-01-08 06:46:00,26.1,17.6,30.24,SSW,202,6.3,8.7,70,0.00,,CLR,0.00,VWS V14.01,2013-01-08 11:46:00,
2013-01-08 06:51:00,26.1,18.0,30.24,SW,225,5.4,8.7,71,0.00,,CLR,0.00,VWS V14.01,2013-01-08 11:51:00,
2013-01-08 06:56:00,26.1,17.6,30.24,SW,225,6.7,8.7,70,0.00,,CLR,0.00,VWS V14.01,2013-01-08 11:56:00,
2013-01-08 07:00:00,26.2,18.1,30.27,SW,225,4.9,8.5,71,0.00,,CLR,0.00,VWS V14.01,2013-01-08 12:00:00,
2013-01-08 07:01:00,25.7,17.3,30.24,SW,225,4.9,8.7,70,0.00,,CLR,0.00,VWS V14.01,2013-01-08 12:01:00,
2013-01-08 07:06:00,25.5,17.4,30.24,SW,225,5.6,8.7,71,0.00,,CLR,0.00,VWS V14.01,2013-01-08 12:06:00,
2013-01-08 07:11:00,25.5,17.4,30.24,SW,225,4.9,5.8,71,0.00,,CLR,0.00,VWS V14.01,2013-01-08 12:11:00,
2013-01-08 07:16:00,25.3,17.6,30.24,SW,225,5.8,5.8,72,0.00,,CLR,0.00,VWS V14.01,2013-01-08 12:16:00,
2013-01-08 07:21:00,25.3,17.6,30.24,SW,225,5.6,6.0,72,0.00,,CLR,0.00,VWS V14.01,2013-01-08 12:21:00,
2013-01-08 07:26:00,25.5,18.1,30.24,SSW,202,6.0,6.3,73,0.00,,CLR,0.00,VWS V14.01,2013-01-08 12:26:00,
2013-01-08 07:31:00,25.7,18.3,30.24,SW,225,6.5,6.7,73,0.00,,CLR,0.00,VWS V14.01,2013-01-08 12:31:00,
2013-01-08 07:36:00,25.9,18.4,30.24,SW,225,7.4,7.4,73,0.00,,CLR,0.00,VWS V14.01,2013-01-08 12:36:00,
2013-01-08 07:41:00,26.1,18.6,30.24,SW,225,7.2,7.4,73,0.00,,CLR,0.00,VWS V14.01,2013-01-08 12:41:00,
2013-01-08 07:46:00,26.1,18.6,30.27,SW,225,7.4,7.4,73,0.00,,CLR,0.00,VWS V14.01,2013-01-08 12:46:00,
2013-01-08 07:51:00,26.2,18.5,30.27,SSW,202,6.0,8.5,72,0.00,,CLR,0.00,VWS V14.01,2013-01-08 12:51:00,
2013-01-08 07:56:00,26.4,18.6,30.27,SW,225,6.0,8.5,72,0.00,,CLR,0.00,VWS V14.01,2013-01-08 12:56:00,
2013-01-08 08:00:00,27.9,18.3,30.27,SSW,202,7.8,11.0,67,0.00,,CLR,0.00,VWS V14.01,2013-01-08 13:00:00,
2013-01-08 08:01:00,26.4,18.3,30.27,SSW,202,6.7,8.5,71,0.00,,CLR,0.00,VWS V14.01,2013-01-08 13:01:00,
2013-01-08 08:06:00,26.4,18.3,30.27,SW,225,5.8,8.5,71,0.00,,CLR,0.00,VWS V14.01,2013-01-08 13:06:00,
2013-01-08 08:11:00,26.4,18.6,30.27,SSW,202,6.0,8.5,72,0.00,,CLR,0.00,VWS V14.01,2013-01-08 13:11:00,
2013-01-08 08:16:00,26.4,18.3,30.27,SSW,202,5.8,9.0,71,0.00,,CLR,0.00,VWS V14.01,2013-01-08 13:16:00,
2013-01-08 08:21:00,26.4,18.3,30.27,SSW,202,7.4,9.0,71,0.00,,CLR,0.00,VWS V14.01,2013-01-08 13:21:00,
2013-01-08 08:26:00,26.6,18.5,30.27,SSW,202,8.7,9.2,71,0.00,,CLR,0.00,VWS V14.01,2013-01-08 13:26:00,
2013-01-08 08:31:00,26.8,18.3,30.27,SSW,202,6.5,9.2,70,0.00,,CLR,0.00,VWS V14.01,2013-01-08 13:31:00,
2013-01-08 08:36:00,27.0,18.5,30.27,SSW,202,11.0,11.0,70,0.00,,CLR,0.00,VWS V14.01,2013-01-08 13:36:00,
2013-01-08 08:41:00,27.0,18.5,30.27,SSW,202,7.8,11.0,70,0.00,,CLR,0.00,VWS V14.01,2013-01-08 13:41:00,
2013-01-08 08:46:00,27.1,18.3,30.27,SW,225,7.4,11.0,69,0.00,,CLR,0.00,VWS V14.01,2013-01-08 13:46:00,
2013-01-08 08:51:00,27.3,18.5,30.27,SSW,202,8.5,11.0,69,0.00,,CLR,0.00,VWS V14.01,2013-01-08 13:51:00,
2013-01-08 08:56:00,27.5,18.3,30.27,SW,225,8.1,11.0,68,0.00,,CLR,0.00,VWS V14.01,2013-01-08 13:56:00,
2013-01-08 09:00:00,29.5,18.8,30.27,SSW,202,8.5,11.9,64,0.00,,CLR,0.00,VWS V14.01,2013-01-08 14:00:00,
2013-01-08 09:01:00,27.7,18.5,30.27,SSW,202,7.8,11.0,68,0.00,,CLR,0.00,VWS V14.01,2013-01-08 14:01:00,
2013-01-08 09:06:00,27.9,18.3,30.27,SSW,202,7.8,11.0,67,0.00,,CLR,0.00,VWS V14.01,2013-01-08 14:06:00,
2013-01-08 09:12:00,28.2,18.7,30.27,SSW,202,7.6,11.0,67,0.00,,CLR,0.00,VWS V14.01,2013-01-08 14:12:00,
2013-01-08 09:17:00,28.4,18.9,30.27,SW,225,9.8,11.0,67,0.00,,CLR,0.00,VWS V14.01,2013-01-08 14:17:00,
2013-01-08 09:22:00,28.6,18.7,30.27,SW,225,7.6,11.9,66,0.00,,CLR,0.00,VWS V14.01,2013-01-08 14:22:00,
2013-01-08 09:27:00,28.6,18.7,30.27,SW,225,7.6,11.9,66,0.00,,CLR,0.00,VWS V14.01,2013-01-08 14:27:00,
2013-01-08 09:32:00,28.6,18.7,30.27,SW,225,8.5,11.9,66,0.00,,CLR,0.00,VWS V14.01,2013-01-08 14:32:00,
2013-01-08 09:37:00,28.8,18.5,30.27,SW,225,7.4,11.9,65,0.00,,CLR,0.00,VWS V14.01,2013-01-08 14:37:00,
2013-01-08 09:42:00,28.8,18.9,30.27,SW,225,7.8,11.9,66,0.00,,CLR,0.00,VWS V14.01,2013-01-08 14:42:00,
2013-01-08 09:47:00,28.9,19.0,30.27,SW,225,7.4,11.9,66,0.00,,CLR,0.00,VWS V14.01,2013-01-08 14:47:00,
2013-01-08 09:52:00,28.9,19.0,30.27,SSW,202,7.6,11.9,66,0.00,,CLR,0.00,VWS V14.01,2013-01-08 14:52:00,
2013-01-08 09:57:00,29.1,18.8,30.27,SW,225,7.8,11.9,65,0.00,,CLR,0.00,VWS V14.01,2013-01-08 14:57:00,
2013-01-08 10:00:00,34.0,19.1,30.27,SW,225,7.6,10.1,54,0.00,,CLR,0.00,VWS V14.01,2013-01-08 15:00:00,
2013-01-08 10:02:00,29.1,18.5,30.27,SSW,202,8.7,11.9,64,0.00,,CLR,0.00,VWS V14.01,2013-01-08 15:02:00,
2013-01-08 10:07:00,29.5,18.8,30.27,SSW,202,7.4,8.5,64,0.00,,CLR,0.00,VWS V14.01,2013-01-08 15:07:00,
2013-01-08 10:12:00,29.7,19.0,30.27,SSW,202,7.4,8.7,64,0.00,,CLR,0.00,VWS V14.01,2013-01-08 15:12:00,
2013-01-08 10:17:00,29.8,18.8,30.27,SSW,202,8.1,8.7,63,0.00,,CLR,0.00,VWS V14.01,2013-01-08 15:17:00,
2013-01-08 10:22:00,30.0,19.0,30.27,SW,225,5.8,8.7,63,0.00,,CLR,0.00,VWS V14.01,2013-01-08 15:22:00,
2013-01-08 10:27:00,30.4,18.9,30.27,SW,225,5.6,10.1,62,0.00,,CLR,0.00,VWS V14.01,2013-01-08 15:27:00,
2013-01-08 10:32:00,30.7,18.9,30.27,SSW,202,6.3,10.1,61,0.00,,CLR,0.00,VWS V14.01,2013-01-08 15:32:00,
2013-01-08 10:37:00,30.9,18.7,30.27,SSW,202,7.4,10.1,60,0.00,,CLR,0.00,VWS V14.01,2013-01-08 15:37:00,
2013-01-08 10:42:00,31.1,18.9,30.27,SSW,202,6.5,10.1,60,0.00,,CLR,0.00,VWS V14.01,2013-01-08 15:42:00,
2013-01-08 10:47:00,32.2,19.5,30.27,SSW,202,4.9,10.1,59,0.00,,CLR,0.00,VWS V14.01,2013-01-08 15:47:00,
2013-01-08 10:52:00,32.5,19.4,30.27,SSW,202,5.6,10.1,58,0.00,,CLR,0.00,VWS V14.01,2013-01-08 15:52:00,
2013-01-08 10:57:00,33.6,19.6,30.27,SW,225,5.6,10.1,56,0.00,,CLR,0.00,VWS V14.01,2013-01-08 15:57:00,
2013-01-08 11:00:00,38.5,21.0,30.24,SSW,202,4.9,8.7,49,0.00,,CLR,0.00,VWS V14.01,2013-01-08 16:00:00,
2013-01-08 11:02:00,34.0,19.5,30.27,SSW,202,6.3,10.1,55,0.00,,CLR,0.00,VWS V14.01,2013-01-08 16:02:00,
2013-01-08 11:07:00,34.0,19.1,30.27,SSW,202,5.8,8.1,54,0.00,,CLR,0.00,VWS V14.01,2013-01-08 16:07:00,
2013-01-08 11:12:00,34.3,19.4,30.27,SSW,202,4.5,8.1,54,0.00,,CLR,0.00,VWS V14.01,2013-01-08 16:12:00,
2013-01-08 11:17:00,34.9,19.9,30.24,SSW,202,3.6,8.1,54,0.00,,CLR,0.00,VWS V14.01,2013-01-08 16:17:00,
2013-01-08 11:22:00,34.9,19.5,30.24,SSW,202,6.9,8.5,53,0.00,,CLR,0.00,VWS V14.01,2013-01-08 16:22:00,
2013-01-08 11:27:00,35.1,19.7,30.24,SSW,202,4.9,8.5,53,0.00,,CLR,0.00,VWS V14.01,2013-01-08 16:27:00,
2013-01-08 11:32:00,35.8,19.9,30.24,SW,225,5.6,8.5,52,0.00,,CLR,0.00,VWS V14.01,2013-01-08 16:32:00,
2013-01-08 11:37:00,37.4,20.5,30.24,SW,225,4.3,8.5,50,0.00,,CLR,0.00,VWS V14.01,2013-01-08 16:37:00,
2013-01-08 11:43:00,38.1,20.7,30.24,SSW,202,5.6,8.5,49,0.00,,CLR,0.00,VWS V14.01,2013-01-08 16:43:00,
2013-01-08 11:48:00,37.8,20.3,30.24,SSW,202,5.4,8.5,49,0.00,,CLR,0.00,VWS V14.01,2013-01-08 16:48:00,
2013-01-08 11:53:00,37.6,20.2,30.24,South,180,4.0,8.7,49,0.00,,CLR,0.00,VWS V14.01,2013-01-08 16:53:00,
2013-01-08 11:58:00,38.1,20.7,30.24,SSW,202,6.0,8.7,49,0.00,,CLR,0.00,VWS V14.01,2013-01-08 16:58:00,
2013-01-08 12:00:00,38.7,19.7,30.24,SSW,202,7.4,9.8,46,0.00,,CLR,0.00,VWS V14.01,2013-01-08 17:00:00,
2013-01-08 12:03:00,38.1,20.7,30.24,SSW,202,5.8,8.7,49,0.00,,CLR,0.00,VWS V14.01,2013-01-08 17:03:00,
2013-01-08 12:08:00,38.5,21.0,30.24,SSW,202,4.9,8.7,49,0.00,,CLR,0.00,VWS V14.01,2013-01-08 17:08:00,
2013-01-08 12:13:00,38.7,20.7,30.24,SSW,202,4.9,6.5,48,0.00,,CLR,0.00,VWS V14.01,2013-01-08 17:13:00,
2013-01-08 12:18:00,37.8,19.9,30.24,South,180,8.1,9.8,48,0.00,,CLR,0.00,VWS V14.01,2013-01-08 17:18:00,
2013-01-08 12:23:00,37.6,20.2,30.24,SSW,202,6.3,9.8,49,0.00,,CLR,0.00,VWS V14.01,2013-01-08 17:23:00,
2013-01-08 12:28:00,37.4,20.0,30.24,South,180,6.5,9.8,49,0.00,,CLR,0.00,VWS V14.01,2013-01-08 17:28:00,
2013-01-08 12:33:00,37.9,20.5,30.24,SSW,202,5.6,9.8,49,0.00,,CLR,0.00,VWS V14.01,2013-01-08 17:33:00,
2013-01-08 12:38:00,38.8,21.3,30.24,South,180,5.6,9.8,49,0.00,,CLR,0.00,VWS V14.01,2013-01-08 17:38:00,
2013-01-08 12:43:00,39.0,21.0,30.24,South,180,6.3,9.8,48,0.00,,CLR,0.00,VWS V14.01,2013-01-08 17:43:00,
2013-01-08 12:48:00,39.2,20.2,30.24,SSW,202,5.6,9.8,46,0.00,,CLR,0.00,VWS V14.01,2013-01-08 17:48:00,
2013-01-08 12:53:00,39.6,20.0,30.24,SSW,202,6.0,9.8,45,0.00,,CLR,0.00,VWS V14.01,2013-01-08 17:53:00,
2013-01-08 12:58:00,39.4,19.8,30.24,South,180,6.3,9.8,45,0.00,,CLR,0.00,VWS V14.01,2013-01-08 17:58:00,
2013-01-08 13:00:00,41.4,20.6,30.24,SSW,202,2.5,8.5,43,0.00,,CLR,0.00,VWS V14.01,2013-01-08 18:00:00,
2013-01-08 13:03:00,38.7,19.7,30.24,SSW,202,6.3,9.8,46,0.00,,CLR,0.00,VWS V14.01,2013-01-08 18:03:00,
2013-01-08 13:08:00,38.5,19.5,30.24,South,180,7.4,8.5,46,0.00,,CLR,0.00,VWS V14.01,2013-01-08 18:08:00,
2013-01-08 13:13:00,38.8,20.4,30.24,SSW,202,4.0,8.5,47,0.00,,CLR,0.00,VWS V14.01,2013-01-08 18:13:00,
2013-01-08 13:18:00,38.7,20.7,30.24,SSW,202,3.4,8.5,48,0.00,,CLR,0.00,VWS V14.01,2013-01-08 18:18:00,
2013-01-08 13:23:00,38.5,20.5,30.24,South,180,4.7,8.5,48,0.00,,CLR,0.00,VWS V14.01,2013-01-08 18:23:00,
2013-01-08 13:28:00,39.4,21.3,30.24,SSW,202,4.9,8.5,48,0.00,,CLR,0.00,VWS V14.01,2013-01-08 18:28:00,
2013-01-08 13:33:00,39.2,20.2,30.24,South,180,5.4,8.5,46,0.00,,CLR,0.00,VWS V14.01,2013-01-08 18:33:00,
2013-01-08 13:38:00,39.2,20.7,30.24,South,180,4.3,8.5,47,0.00,,CLR,0.00,VWS V14.01,2013-01-08 18:38:00,
2013-01-08 13:43:00,39.2,20.2,30.24,SSW,202,3.6,8.5,46,0.00,,CLR,0.00,VWS V14.01,2013-01-08 18:43:00,
2013-01-08 13:48:00,39.7,20.7,30.24,SSW,202,4.9,8.5,46,0.00,,CLR,0.00,VWS V14.01,2013-01-08 18:48:00,
2013-01-08 13:53:00,39.9,20.3,30.24,SSE,158,4.3,8.5,45,0.00,,CLR,0.00,VWS V14.01,2013-01-08 18:53:00,
2013-01-08 13:58:00,41.0,20.8,30.24,South,180,3.8,8.5,44,0.00,,CLR,0.00,VWS V14.01,2013-01-08 18:58:00,
2013-01-08 14:00:00,38.8,20.4,30.24,SSE,158,4.0,6.0,47,0.00,,CLR,0.00,VWS V14.01,2013-01-08 19:00:00,
2013-01-08 14:03:00,41.4,20.6,30.24,South,180,2.5,8.5,43,0.00,,CLR,0.00,VWS V14.01,2013-01-08 19:03:00,
2013-01-08 14:08:00,42.6,22.2,30.24,SSW,202,1.6,2.5,44,0.00,,CLR,0.00,VWS V14.01,2013-01-08 19:08:00,
2013-01-08 14:13:00,41.7,20.3,30.24,SSW,202,3.6,4.3,42,0.00,,CLR,0.00,VWS V14.01,2013-01-08 19:13:00,
2013-01-08 14:19:00,41.7,20.9,30.24,SSW,202,3.4,4.3,43,0.00,,CLR,0.00,VWS V14.01,2013-01-08 19:19:00,
2013-01-08 14:24:00,42.1,21.2,30.24,South,180,4.3,4.3,43,0.00,,CLR,0.00,VWS V14.01,2013-01-08 19:24:00,
2013-01-08 14:29:00,41.4,20.6,30.24,South,180,4.3,4.9,43,0.00,,CLR,0.00,VWS V14.01,2013-01-08 19:29:00,
2013-01-08 14:34:00,41.2,20.4,30.24,SSW,202,2.5,4.9,43,0.00,,CLR,0.00,VWS V14.01,2013-01-08 19:34:00,
2013-01-08 14:39:00,40.8,20.6,30.24,SSE,158,3.4,4.9,44,0.00,,CLR,0.00,VWS V14.01,2013-01-08 19:39:00,
2013-01-08 14:44:00,40.1,20.0,30.24,SSW,202,3.4,4.9,44,0.00,,CLR,0.00,VWS V14.01,2013-01-08 19:44:00,
2013-01-08 14:49:00,39.9,20.3,30.24,SSW,202,3.4,4.9,45,0.00,,CLR,0.00,VWS V14.01,2013-01-08 19:49:00,
2013-01-08 14:54:00,39.4,19.8,30.24,South,180,4.3,4.9,45,0.00,,CLR,0.00,VWS V14.01,2013-01-08 19:54:00,
2013-01-08 15:00:00,39.0,20.5,30.24,SSW,202,3.8,6.0,47,0.00,,CLR,0.00,VWS V14.01,2013-01-08 20:00:00,
2013-01-08 15:05:00,38.8,20.4,30.24,South,180,5.6,6.0,47,0.00,,CLR,0.00,VWS V14.01,2013-01-08 20:05:00,
2013-01-08 15:10:00,39.2,20.7,30.24,South,180,3.1,4.9,47,0.00,,CLR,0.00,VWS V14.01,2013-01-08 20:10:00,
2013-01-08 15:15:00,39.0,20.5,30.24,South,180,4.0,5.6,47,0.00,,CLR,0.00,VWS V14.01,2013-01-08 20:15:00,
2013-01-08 15:20:00,39.0,21.0,30.24,South,180,4.7,5.8,48,0.00,,CLR,0.00,VWS V14.01,2013-01-08 20:20:00,
2013-01-08 15:25:00,39.0,21.0,30.24,South,180,5.6,6.0,48,0.00,,CLR,0.00,VWS V14.01,2013-01-08 20:25:00,
2013-01-08 15:30:00,38.8,21.3,30.24,SSW,202,7.6,7.6,49,0.00,,CLR,0.00,VWS V14.01,2013-01-08 20:30:00,
2013-01-08 15:35:00,38.3,20.8,30.24,South,180,6.5,8.7,49,0.00,,CLR,0.00,VWS V14.01,2013-01-08 20:35:00,
2013-01-08 15:40:00,37.9,20.5,30.24,SSW,202,5.8,8.7,49,0.00,,CLR,0.00,VWS V14.01,2013-01-08 20:40:00,
2013-01-08 15:45:00,37.8,20.3,30.24,SSW,202,6.3,8.7,49,0.00,,CLR,0.00,VWS V14.01,2013-01-08 20:45:00,
2013-01-08 15:50:00,37.6,20.6,30.24,SSW,202,5.4,8.7,50,0.00,,CLR,0.00,VWS V14.01,2013-01-08 20:50:00,
2013-01-08 15:55:00,37.6,20.6,30.24,South,180,8.1,8.7,50,0.00,,CLR,0.00,VWS V14.01,2013-01-08 20:55:00,
2013-01-08 16:00:00,37.4,20.5,30.24,South,180,5.6,8.7,50,0.00,,CLR,0.00,VWS V14.01,2013-01-08 21:00:00,
2013-01-08 16:05:00,37.2,20.8,30.24,South,180,6.9,8.7,51,0.00,,CLR,0.00,VWS V14.01,2013-01-08 21:05:00,
2013-01-08 16:10:00,37.0,21.1,30.24,South,180,4.9,6.5,52,0.00,,CLR,0.00,VWS V14.01,2013-01-08 21:10:00,
2013-01-08 16:15:00,37.0,21.1,30.24,South,180,4.3,6.5,52,0.00,,CLR,0.00,VWS V14.01,2013-01-08 21:15:00,
2013-01-08 16:21:00,36.9,20.9,30.24,South,180,6.3,6.5,52,0.00,,CLR,0.00,VWS V14.01,2013-01-08 21:21:00,
2013-01-08 16:26:00,36.5,20.6,30.24,South,180,4.7,6.5,52,0.00,,CLR,0.00,VWS V14.01,2013-01-08 21:26:00,
2013-01-08 16:31:00,36.3,20.8,30.24,South,180,5.4,6.5,53,0.00,,CLR,0.00,VWS V14.01,2013-01-08 21:31:00,
2013-01-08 16:36:00,36.1,20.7,30.24,SSW,202,4.9,6.5,53,0.00,,CLR,0.00,VWS V14.01,2013-01-08 21:36:00,
2013-01-08 16:41:00,35.8,20.3,30.24,SSW,202,3.8,6.5,53,0.00,,CLR,0.00,VWS V14.01,2013-01-08 21:41:00,
2013-01-08 16:46:00,35.6,20.2,30.24,South,180,3.8,6.5,53,0.00,,CLR,0.00,VWS V14.01,2013-01-08 21:46:00,
2013-01-08 16:51:00,35.4,20.4,30.24,SSE,158,3.4,6.5,54,0.00,,CLR,0.00,VWS V14.01,2013-01-08 21:51:00,
2013-01-08 16:56:00,35.1,20.1,30.24,SSE,158,4.0,6.5,54,0.00,,CLR,0.00,VWS V14.01,2013-01-08 21:56:00,
2013-01-08 17:00:00,32.9,20.5,30.24,South,180,8.5,8.5,60,0.00,,CLR,0.00,VWS V14.01,2013-01-08 22:00:00,
2013-01-08 17:01:00,35.1,20.1,30.24,SSE,158,4.3,6.5,54,0.00,,CLR,0.00,VWS V14.01,2013-01-08 22:01:00,
2013-01-08 17:06:00,34.5,20.0,30.24,SSE,158,2.5,6.5,55,0.00,,CLR,0.00,VWS V14.01,2013-01-08 22:06:00,
2013-01-08 17:11:00,34.3,19.9,30.24,SSE,158,3.1,4.3,55,0.00,,CLR,0.00,VWS V14.01,2013-01-08 22:11:00,
2013-01-08 17:16:00,34.2,20.1,30.24,SSE,158,3.4,4.7,56,0.00,,CLR,0.00,VWS V14.01,2013-01-08 22:16:00,
2013-01-08 17:21:00,33.8,19.4,30.24,SSE,158,2.9,4.7,55,0.00,,CLR,0.00,VWS V14.01,2013-01-08 22:21:00,
2013-01-08 17:26:00,33.6,19.6,30.24,SSE,158,2.9,4.7,56,0.00,,CLR,0.00,VWS V14.01,2013-01-08 22:26:00,
2013-01-08 17:31:00,33.4,19.9,30.24,SSE,158,3.4,4.7,57,0.00,,CLR,0.00,VWS V14.01,2013-01-08 22:31:00,
2013-01-08 17:36:00,33.4,20.3,30.24,South,180,4.3,4.7,58,0.00,,CLR,0.00,VWS V14.01,2013-01-08 22:36:00,
2013-01-08 17:41:00,33.4,20.3,30.24,South,180,4.0,4.7,58,0.00,,CLR,0.00,VWS V14.01,2013-01-08 22:41:00,
2013-01-08 17:46:00,33.1,20.3,30.24,SSE,158,3.8,5.4,59,0.00,,CLR,0.00,VWS V14.01,2013-01-08 22:46:00,
2013-01-08 17:51:00,32.9,20.2,30.24,South,180,3.8,5.4,59,0.00,,CLR,0.00,VWS V14.01,2013-01-08 22:51:00,
2013-01-08 17:56:00,32.9,20.5,30.24,SSE,158,4.3,5.6,60,0.00,,CLR,0.00,VWS V14.01,2013-01-08 22:56:00,
2013-01-08 18:00:00,32.5,21.0,30.24,South,180,9.0,11.0,62,0.00,,CLR,0.00,VWS V14.01,2013-01-08 23:00:00,
2013-01-08 18:01:00,32.9,20.5,30.24,South,180,4.9,6.5,60,0.00,,CLR,0.00,VWS V14.01,2013-01-08 23:01:00,
2013-01-08 18:06:00,32.9,20.5,30.24,South,180,7.2,7.2,60,0.00,,CLR,0.00,VWS V14.01,2013-01-08 23:06:00,
2013-01-08 18:11:00,33.1,20.7,30.24,South,180,6.3,8.7,60,0.00,,CLR,0.00,VWS V14.01,2013-01-08 23:11:00,
2013-01-08 18:16:00,32.9,20.5,30.24,South,180,6.3,8.7,60,0.00,,CLR,0.00,VWS V14.01,2013-01-08 23:16:00,
2013-01-08 18:21:00,32.9,20.5,30.24,South,180,6.0,8.7,60,0.00,,CLR,0.00,VWS V14.01,2013-01-08 23:21:00,
2013-01-08 18:26:00,32.9,20.5,30.24,South,180,7.4,8.7,60,0.00,,CLR,0.00,VWS V14.01,2013-01-08 23:26:00,
2013-01-08 18:31:00,33.1,20.7,30.24,SSW,202,5.8,8.7,60,0.00,,CLR,0.00,VWS V14.01,2013-01-08 23:31:00,
2013-01-08 18:36:00,32.9,20.5,30.24,SSW,202,4.9,8.7,60,0.00,,CLR,0.00,VWS V14.01,2013-01-08 23:36:00,
2013-01-08 18:41:00,32.9,20.9,30.24,South,180,6.0,8.7,61,0.00,,CLR,0.00,VWS V14.01,2013-01-08 23:41:00,
2013-01-08 18:46:00,32.9,20.9,30.24,South,180,5.8,8.7,61,0.00,,CLR,0.00,VWS V14.01,2013-01-08 23:46:00,
2013-01-08 18:52:00,32.7,20.8,30.24,South,180,7.2,8.7,61,0.00,,CLR,0.00,VWS V14.01,2013-01-08 23:52:00,
2013-01-08 18:57:00,32.7,20.8,30.24,South,180,7.4,9.6,61,0.00,,CLR,0.00,VWS V14.01,2013-01-08 23:57:00,
2013-01-08 19:02:00,32.5,21.0,30.24,South,180,6.3,10.3,62,0.00,,CLR,0.00,VWS V14.01,2013-01-09 00:02:00,
2013-01-08 19:07:00,32.5,21.0,30.24,South,180,9.0,11.0,62,0.00,,CLR,0.00,VWS V14.01,2013-01-09 00:07:00,
2013-01-08 19:12:00,32.5,21.0,30.24,South,180,8.1,12.8,62,0.00,,CLR,0.00,VWS V14.01,2013-01-09 00:12:00,
2013-01-08 19:17:00,32.4,20.8,30.24,SSE,158,9.6,12.8,62,0.00,,CLR,0.00,VWS V14.01,2013-01-09 00:17:00,
2013-01-08 19:22:00,32.4,21.2,30.24,SSW,202,10.1,13.0,63,0.00,,CLR,0.00,VWS V14.01,2013-01-09 00:22:00,
2013-01-08 19:27:00,32.4,21.2,30.24,South,180,10.1,13.0,63,0.00,,CLR,0.00,VWS V14.01,2013-01-09 00:27:00,
2013-01-08 19:32:00,32.4,21.2,30.24,SSW,202,12.5,13.2,63,0.00,,CLR,0.00,VWS V14.01,2013-01-09 00:32:00,
2013-01-08 19:37:00,32.2,21.4,30.24,South,180,10.1,14.3,64,0.00,,CLR,0.00,VWS V14.01,2013-01-09 00:37:00,
2013-01-08 19:42:00,32.2,21.4,30.24,SSW,202,7.4,14.3,64,0.00,,CLR,0.00,VWS V14.01,2013-01-09 00:42:00,
2013-01-08 19:47:00,32.2,21.4,30.24,SSW,202,8.5,15.7,64,0.00,,CLR,0.00,VWS V14.01,2013-01-09 00:47:00,
2013-01-08 19:52:00,32.2,21.4,30.24,SSW,202,15.2,15.7,64,0.00,,CLR,0.00,VWS V14.01,2013-01-09 00:52:00,
2013-01-08 19:57:00,32.0,21.6,30.24,South,180,12.3,15.7,65,0.00,,CLR,0.00,VWS V14.01,2013-01-09 00:57:00,
2013-01-08 20:00:00,31.3,21.6,30.21,SSW,202,10.7,17.2,67,0.00,,CLR,0.00,VWS V14.01,2013-01-09 01:00:00,
2013-01-08 20:02:00,32.0,21.6,30.21,South,180,10.1,15.7,65,0.00,,CLR,0.00,VWS V14.01,2013-01-09 01:02:00,
2013-01-08 20:07:00,32.0,21.6,30.21,SSW,202,8.5,16.8,65,0.00,,CLR,0.00,VWS V14.01,2013-01-09 01:07:00,
2013-01-08 20:12:00,31.8,21.4,30.21,SSW,202,11.0,16.8,65,0.00,,CLR,0.00,VWS V14.01,2013-01-09 01:12:00,
2013-01-08 20:17:00,31.6,21.6,30.21,South,180,8.5,16.8,66,0.00,,CLR,0.00,VWS V14.01,2013-01-09 01:17:00,
2013-01-08 20:22:00,31.6,21.6,30.21,South,180,10.3,16.8,66,0.00,,CLR,0.00,VWS V14.01,2013-01-09 01:22:00,
2013-01-08 20:27:00,31.6,21.6,30.21,SSW,202,13.6,16.8,66,0.00,,CLR,0.00,VWS V14.01,2013-01-09 01:27:00,
2013-01-08 20:32:00,31.5,21.4,30.21,SSW,202,10.1,16.8,66,0.00,,CLR,0.00,VWS V14.01,2013-01-09 01:32:00,
2013-01-08 20:37:00,31.5,21.4,30.21,SSW,202,13.2,16.8,66,0.00,,CLR,0.00,VWS V14.01,2013-01-09 01:37:00,
2013-01-08 20:42:00,31.5,21.4,30.21,South,180,17.2,17.2,66,0.00,,CLR,0.00,VWS V14.01,2013-01-09 01:42:00,
2013-01-08 20:47:00,31.6,22.0,30.21,South,180,12.8,17.2,67,0.00,,CLR,0.00,VWS V14.01,2013-01-09 01:47:00,
2013-01-08 20:52:00,31.5,21.8,30.21,SSE,158,9.8,17.2,67,0.00,,CLR,0.00,VWS V14.01,2013-01-09 01:52:00,
2013-01-08 20:57:00,31.3,21.6,30.21,South,180,10.3,17.2,67,0.00,,CLR,0.00,VWS V14.01,2013-01-09 01:57:00,
2013-01-08 21:00:00,31.5,21.8,30.21,South,180,10.1,16.6,67,0.00,,CLR,0.00,VWS V14.01,2013-01-09 02:00:00,
2013-01-08 21:03:00,31.5,21.8,30.21,SSW,202,11.0,17.2,67,0.00,,CLR,0.00,VWS V14.01,2013-01-09 02:03:00,
2013-01-08 21:08:00,31.3,21.6,30.21,SSW,202,9.8,10.7,67,0.00,,CLR,0.00,VWS V14.01,2013-01-09 02:08:00,
2013-01-08 21:13:00,31.3,22.0,30.21,SSW,202,7.8,11.0,68,0.00,,CLR,0.00,VWS V14.01,2013-01-09 02:13:00,
2013-01-08 21:18:00,31.1,21.8,30.21,South,180,8.1,13.2,68,0.00,,CLR,0.00,VWS V14.01,2013-01-09 02:18:00,
2013-01-08 21:23:00,31.1,21.8,30.21,SSE,158,12.5,13.2,68,0.00,,CLR,0.00,VWS V14.01,2013-01-09 02:23:00,
2013-01-08 21:28:00,31.1,21.8,30.21,SSE,158,7.6,13.2,68,0.00,,CLR,0.00,VWS V14.01,2013-01-09 02:28:00,
2013-01-08 21:33:00,30.9,21.6,30.21,South,180,7.8,13.2,68,0.00,,CLR,0.00,VWS V14.01,2013-01-09 02:33:00,
2013-01-08 21:38:00,31.1,21.8,30.21,SSW,202,9.0,13.9,68,0.00,,CLR,0.00,VWS V14.01,2013-01-09 02:38:00,
2013-01-08 21:43:00,31.1,21.8,30.21,SSW,202,10.3,13.9,68,0.00,,CLR,0.00,VWS V14.01,2013-01-09 02:43:00,
2013-01-08 21:48:00,31.3,22.0,30.18,South,180,10.7,16.6,68,0.00,,CLR,0.00,VWS V14.01,2013-01-09 02:48:00,
2013-01-08 21:53:00,31.3,22.0,30.18,SSW,202,8.5,16.6,68,0.00,,CLR,0.00,VWS V14.01,2013-01-09 02:53:00,
2013-01-08 21:58:00,31.3,21.6,30.18,SSE,158,8.7,16.6,67,0.00,,CLR,0.00,VWS V14.01,2013-01-09 02:58:00,
2013-01-08 22:00:00,31.6,22.3,30.21,SSW,202,7.8,14.8,68,0.00,,CLR,0.00,VWS V14.01,2013-01-09 03:00:00,
2013-01-08 22:03:00,31.3,21.6,30.21,SSE,158,10.3,16.6,67,0.00,,CLR,0.00,VWS V14.01,2013-01-09 03:03:00,
2013-01-08 22:08:00,31.5,21.8,30.21,SSW,202,12.5,12.5,67,0.00,,CLR,0.00,VWS V14.01,2013-01-09 03:08:00,
2013-01-08 22:14:00,31.1,21.4,30.21,South,180,6.0,12.5,67,0.00,,CLR,0.00,VWS V14.01,2013-01-09 03:14:00,
2013-01-08 22:19:00,31.1,21.4,30.18,SSW,202,8.1,14.5,67,0.00,,CLR,0.00,VWS V14.01,2013-01-09 03:19:00,
2013-01-08 22:24:00,31.1,21.4,30.18,SSW,202,8.7,14.5,67,0.00,,CLR,0.00,VWS V14.01,2013-01-09 03:24:00,
2013-01-08 22:29:00,31.1,21.4,30.18,SSW,202,11.4,14.5,67,0.00,,CLR,0.00,VWS V14.01,2013-01-09 03:29:00,
2013-01-08 22:34:00,31.5,21.8,30.21,SSW,202,8.1,14.5,67,0.00,,CLR,0.00,VWS V14.01,2013-01-09 03:34:00,
2013-01-08 22:39:00,31.5,21.8,30.21,South,180,6.3,14.8,67,0.00,,CLR,0.00,VWS V14.01,2013-01-09 03:39:00,
2013-01-08 22:44:00,31.3,21.6,30.21,South,180,8.1,14.8,67,0.00,,CLR,0.00,VWS V14.01,2013-01-09 03:44:00,
2013-01-08 22:49:00,31.5,21.8,30.21,SSE,158,13.2,14.8,67,0.00,,CLR,0.00,VWS V14.01,2013-01-09 03:49:00,
2013-01-08 22:54:00,31.5,21.8,30.21,SSW,202,9.8,14.8,67,0.00,,CLR,0.00,VWS V14.01,2013-01-09 03:54:00,
2013-01-08 22:59:00,31.5,21.8,30.21,SSW,202,8.5,14.8,67,0.00,,CLR,0.00,VWS V14.01,2013-01-09 03:59:00,
2013-01-08 23:00:00,31.5,22.5,30.21,SSW,202,5.6,13.2,69,0.00,,CLR,0.00,VWS V14.01,2013-01-09 04:00:00,
2013-01-08 23:04:00,31.6,22.3,30.21,South,180,8.1,14.8,68,0.00,,CLR,0.00,VWS V14.01,2013-01-09 04:04:00,
2013-01-08 23:09:00,31.5,22.1,30.21,South,180,9.8,10.3,68,0.00,,CLR,0.00,VWS V14.01,2013-01-09 04:09:00,
2013-01-08 23:14:00,31.8,22.5,30.21,SSE,158,8.7,12.5,68,0.00,,CLR,0.00,VWS V14.01,2013-01-09 04:14:00,
2013-01-08 23:19:00,31.8,22.8,30.21,South,180,8.7,12.8,69,0.00,,CLR,0.00,VWS V14.01,2013-01-09 04:19:00,
2013-01-08 23:24:00,31.8,22.8,30.21,SSW,202,10.7,12.8,69,0.00,,CLR,0.00,VWS V14.01,2013-01-09 04:24:00,
2013-01-08 23:29:00,32.0,23.0,30.21,South,180,10.5,13.2,69,0.00,,CLR,0.00,VWS V14.01,2013-01-09 04:29:00,
2013-01-08 23:34:00,31.6,22.6,30.21,SSW,202,9.8,13.2,69,0.00,,CLR,0.00,VWS V14.01,2013-01-09 04:34:00,
2013-01-08 23:39:00,31.6,22.6,30.21,SSW,202,5.6,13.2,69,0.00,,CLR,0.00,VWS V14.01,2013-01-09 04:39:00,
2013-01-08 23:44:00,31.6,22.6,30.21,SSW,202,7.8,13.2,69,0.00,,CLR,0.00,VWS V14.01,2013-01-09 04:44:00,
2013-01-08 23:49:00,31.6,23.0,30.18,SSW,202,10.1,13.2,70,0.00,,CLR,0.00,VWS V14.01,2013-01-09 04:49:00,
2013-01-08 23:54:00,31.5,22.5,30.18,SSW,202,7.4,13.2,69,0.00,,CLR,0.00,VWS V14.01,2013-01-09 04:54:00,
2013-01-08 23:59:00,31.5,22.8,30.18,SSW,202,8.7,13.2,70,0.00,,CLR,0.00,VWS V14.01,2013-01-09 04:59:00,